Tracking 35331 objects as of 14-Sep-2026
HD Live streaming from Space Station
objects crossing your sky now

COSMOS 505

Track COSMOS 505 now!
10-day predictions
COSMOS 505 is classified as:


NORAD ID: 6118
Int'l Code: 1972-057B
Launch date: July 20, 1972
Source: Commonwealth of Independent States (former USSR) (CIS)
Launch site: PLESETSK MISSILE AND SPACE COMPLEX (PKMTR)
Your satellite tracking list
Your tracking list is empty




NASA's NSSDC Master Catalog

Two Line Element Set (TLE):
1 06118U 72057B   26257.29852590 -.00000021  00000-0 -30189-4 0  9999
2 06118  74.0243  92.4947 0092119  68.6408 103.5079 12.59823483490291
Source of the keplerian elements: AFSPC